Location: Athabasca
(54.7194°N, 113.2858°W)
Time: 03:53:43
(UTC+00:00)

XW-2D - Visible Passes

Search period start: 07 December 2023 00:00
Search period end: 17 December 2023 00:00
Orbit: 454 x 463 km, 97.5° (Epoch: 06 December)

Date Brightness Start Highest point End Pass type
(mag) Time Alt. Az. Time Alt. Az. Time Alt. Az.
07 Dec ? 01:30:11 10° S 01:33:34 50° W 01:37:00 10° NNW visible
07 Dec ? 14:19:09 10° NNE 14:22:38 65° ESE 14:26:05 10° S visible
08 Dec ? 00:57:52 10° SSE 01:01:20 72° ENE 01:04:50 10° N visible
08 Dec ? 02:33:08 10° WSW 02:34:43 13° W 02:36:19 10° WNW visible
08 Dec ? 13:47:11 10° NNE 13:50:17 29° E 13:53:21 10° SSE visible
09 Dec ? 00:26:04 10° SE 00:29:12 33° ENE 00:32:23 10° N visible
09 Dec ? 01:59:15 10° SSW 02:02:11 25° W 02:05:09 10° NW visible
09 Dec ? 13:15:48 10° NE 13:17:46 14° E 13:19:43 10° ESE visible
09 Dec ? 14:47:37 10° N 14:51:04 62° WNW 14:54:29 10° SSW visible
09 Dec ? 23:54:49 10° ESE 23:57:10 17° ENE 23:59:32 10° NNE visible
10 Dec ? 01:26:20 10° S 01:29:45 55° WSW 01:33:12 10° NNW visible
10 Dec ? 14:15:19 10° NNE 14:18:46 58° E 14:22:11 10° S visible
11 Dec ? 00:54:00 10° SSE 00:57:26 64° ENE 01:00:55 10° N visible
11 Dec ? 02:28:53 10° WSW 02:30:46 14° W 02:32:39 10° NW visible
11 Dec ? 13:43:19 10° NE 13:46:18 26° E 13:49:16 10° SSE visible
12 Dec ? 00:22:10 10° SE 00:25:13 30° ENE 00:28:19 10° N visible
12 Dec ? 01:55:06 10° SSW 01:58:08 28° W 02:01:13 10° NW visible
12 Dec ? 13:11:59 10° ENE 13:13:39 13° E 13:15:18 10° ESE visible
12 Dec ? 14:43:32 10° N 14:47:00 69° WNW 14:50:26 10° SSW visible
12 Dec ? 23:50:56 10° E 23:53:06 16° ENE 23:55:18 10° NNE visible
13 Dec ? 01:22:12 10° S 01:25:38 62° WSW 01:29:06 10° NNW visible
13 Dec ? 14:11:11 10° NNE 14:14:35 51° E 14:17:58 10° S visible
14 Dec ? 00:49:49 10° SSE 00:53:14 57° ENE 00:56:40 10° N visible
14 Dec ? 02:24:21 10° SW 02:26:29 15° W 02:28:37 10° NW visible
14 Dec ? 13:39:08 10° NE 13:41:59 23° E 13:44:50 10° SSE visible
15 Dec ? 00:17:57 10° ESE 00:20:56 27° ENE 00:23:55 10° N visible
15 Dec ? 01:50:40 10° SSW 01:53:47 31° W 01:56:56 10° NNW visible
15 Dec ? 13:07:58 10° ENE 13:09:13 12° E 13:10:28 10° ESE visible
15 Dec ? 14:39:08 10° NNE 14:42:38 78° WNW 14:46:04 10° SSW visible
16 Dec ? 01:17:45 10° S 01:21:12 71° WSW 01:24:41 10° NNW visible
16 Dec ? 14:06:44 10° NNE 14:10:05 45° E 14:13:24 10° S visible
